[[{"header":{"parameterUnit":"m.s-1","parameterCategory":1,"la1":30.2991,"la2":30.254,"lo1":-89.0895,"lo2":-89.0444,"dy":0.0017,"dx":0.0017,"nx":28,"ny":28,"refTime":"2026-02-26T09:00:00:Z","depth":0,"parameterNumber":2,"parameterNumberName":"U-component_of_WINDS"},"data":[0,0,0,0,0,0,0,0,0,0,0,0,0,0,0,0,0,0,0,0,0,0,0,0,0,0,0,0,0,0,0,0,0,0,0,0,0,0,0,0,0,0,0,0,0,0,0,0,0,0,0,0,0,0,0,0,0,0,2.3853,2.3853,0,2.3874,2.3874,2.3874,2.3839,2.3838,2.3837,2.3836,2.3859,2.386,2.3862,0,0,0,0,0,0,0,0,0,0,0,0,0,2.3786,2.3787,2.3853,2.3853,2.3854,2.3874,2.3874,2.3874,2.3839,2.3838,2.3837,2.3835,2.3858,2.386,2.3862,0,0,0,0,0,0,0,0,0,0,0,0,0,2.3812,2.3788,2.3853,2.3839,2.3838,2.3873,2.3874,2.3874,2.384,2.3838,2.3836,2.3834,2.3858,2.386,2.3863,2.3914,0,0,2.3871,2.3872,0,0,0,0,0,0,0,0,2.381,2.3814,2.384,2.384,2.3839,2.3852,2.3858,2.3888,2.384,2.3839,2.3836,2.3834,2.3858,2.3861,2.3868,2.3915,2.3916,2.3871,2.3872,2.3873,2.3874,0,0,0,0,0,0,0,2.3808,2.3813,2.3861,2.3841,2.384,2.3832,2.3833,2.3864,2.3858,2.3839,2.3836,2.3839,2.3857,2.3866,2.3869,2.3917,2.3871,2.3873,2.3875,2.3876,2.4007,2.4009,0,0,0,0,0,0,2.3808,2.3812,2.3861,2.3862,2.382,2.3834,2.3836,2.3849,2.3858,2.3857,2.3841,2.3838,2.3862,2.3866,2.3869,2.393,2.3873,2.3876,2.3877,2.4005,2.4007,2.4009,0,0,0,0,0,0,2.3807,2.3813,2.386,2.3836,2.3841,2.3837,2.3853,2.3851,2.3859,2.3859,2.3858,2.3851,2.3861,2.3866,2.3903,2.3931,2.3877,2.3879,2.4003,2.4006,2.4008,2.4053,0,0,0,0,0,0,2.3805,2.3813,2.3832,2.3837,2.3843,2.3893,2.3854,2.3853,2.3864,2.386,2.3868,2.3868,2.386,2.3899,2.3906,2.3933,2.3881,2.4,2.4004,2.4007,2.4049,2.4057,2.4064,0,0,0,0,0,2.3803,2.3844,2.3833,2.3839,2.3867,2.3895,2.3898,2.3888,2.3866,2.3886,2.3885,2.3868,2.3926,2.3904,2.391,2.3939,2.3998,2.4003,2.4007,2.4046,2.4055,2.4064,0,0,0,0,0,0,2.3843,2.3844,2.3832,2.3876,2.3885,2.3889,2.3913,2.3898,2.3915,2.391,2.3897,2.3899,2.394,2.3943,2.3918,2.3989,2.3959,2.3965,2.3986,2.3995,2.4002,2.4001,2.3884,0,0,0,0,0,2.3857,2.3879,2.3879,2.3918,2.3923,2.3917,2.3929,2.392,2.3929,2.3933,2.3936,2.3946,2.3967,2.3981,2.4,2.4049,2.4051,2.4072,2.408,2.4086,2.4091,2.4117,2.4127,2.4024,2.4024,2.4024,0,0,2.3886,2.3889,2.3904,2.3926,2.3932,2.3956,2.3921,2.3947,2.3965,2.3938,2.3973,2.3975,2.3986,2.4029,2.4049,2.4033,2.412,2.4091,2.4096,2.4098,2.4123,2.4133,2.4141,2.4027,2.4026,2.4026,0,0,2.3951,2.3956,2.3989,2.3995,2.4005,2.4001,2.4009,2.4014,2.4014,2.4049,2.4029,2.405,2.4086,2.4095,2.4104,2.4172,2.4156,2.4178,2.4218,2.4243,2.4251,2.4258,2.4283,2.4292,2.4184,2.4184,2.4184,0,2.3987,2.4021,2.4008,2.4035,2.4046,2.4021,2.4055,2.4062,2.4078,2.4086,2.4068,2.4113,2.4118,2.4163,2.418,2.4188,2.4197,2.4178,2.4251,2.4258,2.4265,2.4288,2.4297,2.4187,2.4186,2.4186,2.4186,0,2.4064,2.4088,2.4113,2.4128,2.4141,2.4172,2.4164,2.4179,2.4169,2.4166,2.4203,2.4208,2.4228,2.4238,2.4229,2.4282,2.4272,2.4253,2.4222,2.4277,2.4299,2.4308,2.419,2.4189,2.4189,2.4188,0,0,2.4156,2.4162,2.4172,2.4179,2.4187,2.4206,2.4235,2.4254,2.4267,2.4279,2.4303,2.4334,2.4316,2.4327,2.4318,2.434,2.4394,2.4319,2.4319,2.4333,2.4453,2.4468,2.4478,2.4383,2.4385,2.4386,2.4452,0,2.4221,2.4271,2.426,2.431,2.4332,2.4309,2.4335,2.4343,2.4342,2.4361,2.4359,2.4381,2.4356,2.4362,2.4383,2.4383,2.4418,2.4378,2.4407,2.4408,2.4405,2.449,2.4505,2.4567,2.4461,2.4462,2.4463,0,2.4304,2.4318,2.437,2.4374,2.4383,2.4406,2.4423,2.4441,2.445,2.4447,2.4459,2.4445,2.4475,2.4443,2.4484,2.4457,2.4468,2.447,2.4472,2.4475,2.444,2.4495,2.4587,2.4597,2.4476,2.4475,2.4474,0,2.4366,2.4398,2.4433,2.4439,2.4446,2.4462,2.4466,2.4473,2.4485,2.4499,2.4507,2.4524,2.4534,2.4549,2.4541,2.4518,2.4583,2.4551,2.4582,2.4583,2.4598,2.4597,2.4693,2.4604,2.4604,2.4604,2.4603,0,2.444,2.4473,2.4461,2.4483,2.4519,2.4506,2.4542,2.4543,2.4549,2.4571,2.4552,2.4573,2.4561,2.4581,2.4575,2.461,2.4615,2.4614,2.4612,2.4616,2.4616,2.4623,2.4619,2.4606,2.4606,2.4605,2.4605,0,2.4517,2.451,2.4546,2.4549,2.4551,2.4577,2.458,2.46,2.4597,2.4625,2.463,2.4626,2.4648,2.4642,2.4666,2.4662,2.4706,2.4699,2.4703,2.4702,2.4734,2.4731,2.4838,2.4852,2.4754,2.4755,2.4756,0,2.4565,2.4589,2.4594,2.4607,2.4612,2.4633,2.4645,2.4633,2.4646,2.4658,2.4677,2.4698,2.4714,2.4751,2.475,2.4769,2.4762,2.4798,2.4765,2.4768,2.4763,2.4762,2.4764,2.4805,2.4806,2.4807,2.4808,0,2.4651,2.4646,2.4664,2.468,2.4695,2.4707,2.4718,2.473,2.4718,2.4734,2.4757,2.4769,2.4794,2.4815,2.4832,2.4835,2.482,2.4818,2.4827,2.4831,2.4833,2.4833,2.4722,2.4816,2.4815,2.4815,2.4814,2.4814,2.4715,2.4736,2.4742,2.4763,2.4769,2.478,2.4799,2.4798,2.4816,2.4835,2.4827,2.4853,2.4861,2.4882,2.4888,2.4908,2.4895,2.4907,2.491,2.4913,2.4917,2.4829,2.4911,2.4911,2.4911,2.4911,2.4911,0,2.4801,2.4804,2.4822,2.4838,2.4853,2.4837,2.4848,2.4862,2.4885,2.4894,2.491,2.4935,2.4956,2.4956,2.4975,2.4991,2.4984,2.4996,2.4995,2.4996,2.4928,2.4919,2.5001,2.5001,2.5001,2.5001,2.5001,2.5001,2.4847,2.4881,2.4877,2.4915,2.4917,2.4942,2.495,2.496,2.4967,2.4996,2.5012,2.5012,2.5018,2.5037,2.5054,2.5054,2.5062,2.5077,2.5074,2.501,2.5001,2.4993,2.4984,2.5078,2.5078,2.514,2.5141,2.5141]},{"header":{"parameterUnit":"m.s-1","parameterCategory":1,"la1":30.2991,"la2":30.254,"lo1":-89.0895,"lo2":-89.0444,"dy":0.0017,"dx":0.0017,"nx":28,"ny":28,"refTime":"2026-02-26T09:00:00:Z","depth":0,"parameterNumber":3,"parameterNumberName":"V-component_of_WINDS"},"data":[0,0,0,0,0,0,0,0,0,0,0,0,0,0,0,0,0,0,0,0,0,0,0,0,0,0,0,0,0,0,0,0,0,0,0,0,0,0,0,0,0,0,0,0,0,0,0,0,0,0,0,0,0,0,0,0,0,0,1.8801,1.8801,0,1.8857,1.8858,1.8858,1.8867,1.8867,1.8866,1.8866,1.8925,1.8927,1.8929,0,0,0,0,0,0,0,0,0,0,0,0,0,1.8703,1.8704,1.8801,1.8801,1.8802,1.8857,1.8858,1.8858,1.8867,1.8867,1.8866,1.8866,1.8925,1.8927,1.893,0,0,0,0,0,0,0,0,0,0,0,0,0,1.8751,1.8705,1.8801,1.8813,1.8815,1.8857,1.8858,1.8859,1.8868,1.8867,1.8866,1.8865,1.8924,1.8927,1.893,1.8964,0,0,1.8939,1.8941,0,0,0,0,0,0,0,0,1.8748,1.8754,1.8811,1.8812,1.8814,1.8854,1.8845,1.8894,1.8868,1.8848,1.8866,1.8865,1.8903,1.8907,1.892,1.8967,1.8969,1.894,1.8942,1.8943,1.8944,0,0,0,0,0,0,0,1.8745,1.8752,1.8823,1.8811,1.8814,1.8816,1.8822,1.8854,1.8879,1.8849,1.885,1.8857,1.8903,1.8917,1.8921,1.897,1.894,1.8942,1.8944,1.8945,1.9047,1.9048,0,0,0,0,0,0,1.8739,1.8749,1.8821,1.8825,1.8779,1.8819,1.8826,1.8842,1.8878,1.8883,1.8857,1.8857,1.8912,1.8917,1.8923,1.8965,1.8943,1.8946,1.8947,1.9046,1.9047,1.9048,0,0,0,0,0,0,1.8737,1.8745,1.8819,1.8787,1.8797,1.8821,1.884,1.8844,1.8857,1.8884,1.8889,1.8866,1.8911,1.8919,1.8953,1.8967,1.8947,1.895,1.9045,1.9046,1.9048,1.9049,0,0,0,0,0,0,1.8734,1.8744,1.8757,1.8787,1.8798,1.8848,1.8841,1.8845,1.8862,1.8862,1.8894,1.8898,1.8911,1.8949,1.8956,1.8971,1.8952,1.9044,1.9046,1.9047,1.9048,1.9051,1.9053,0,0,0,0,0,1.873,1.8756,1.8758,1.8767,1.8815,1.8849,1.8855,1.8869,1.8863,1.8877,1.8894,1.8897,1.8964,1.8952,1.8961,1.8977,1.9043,1.9045,1.9047,1.9047,1.905,1.9052,0,0,0,0,0,0,1.8728,1.876,1.8763,1.8799,1.8821,1.885,1.8868,1.8872,1.8897,1.8896,1.8913,1.892,1.8953,1.8968,1.8954,1.9011,1.9003,1.9007,1.9,1.9003,1.9005,1.9002,1.8955,0,0,0,0,0,1.8732,1.8756,1.8783,1.8812,1.8823,1.8843,1.8859,1.8867,1.8891,1.8901,1.8921,1.8944,1.897,1.8987,1.9013,1.905,1.9057,1.9065,1.9067,1.9069,1.9072,1.9092,1.9096,1.9054,1.9054,1.9054,0,0,1.874,1.876,1.8775,1.8812,1.883,1.8856,1.8851,1.8878,1.8897,1.8905,1.8939,1.8954,1.8981,1.9017,1.9034,1.903,1.9085,1.9071,1.9072,1.9075,1.9095,1.9099,1.9102,1.9056,1.9056,1.9055,0,0,1.8768,1.8785,1.8812,1.8829,1.8856,1.8869,1.8876,1.8904,1.8914,1.8948,1.8954,1.8977,1.9022,1.9041,1.9056,1.9089,1.9094,1.9097,1.9109,1.9129,1.9132,1.9135,1.9147,1.9151,1.91,1.91,1.91,0,1.8775,1.8812,1.8825,1.8851,1.8868,1.8874,1.8901,1.8918,1.8953,1.8964,1.8959,1.9015,1.9034,1.9074,1.9082,1.9094,1.9102,1.9094,1.913,1.9133,1.9137,1.9148,1.9153,1.9101,1.9101,1.91,1.91,0,1.882,1.8846,1.8864,1.8896,1.8914,1.894,1.8957,1.8974,1.898,1.8994,1.9028,1.905,1.908,1.909,1.9097,1.9131,1.9128,1.9127,1.912,1.9141,1.9152,1.9157,1.9101,1.9101,1.9101,1.9101,0,0,1.885,1.8887,1.8893,1.8908,1.8937,1.8958,1.8984,1.9013,1.9027,1.905,1.9073,1.911,1.9108,1.9126,1.9135,1.9152,1.9176,1.9148,1.9149,1.9153,1.9215,1.9217,1.9222,1.9178,1.9179,1.918,1.9213,0,1.8882,1.8929,1.894,1.8981,1.9005,1.9011,1.9034,1.9055,1.9067,1.909,1.9104,1.913,1.9126,1.9137,1.9153,1.917,1.9189,1.9167,1.9201,1.9202,1.9195,1.9228,1.923,1.926,1.9217,1.9218,1.9219,0,1.8926,1.8949,1.8991,1.9017,1.9027,1.9048,1.9074,1.9096,1.9119,1.9127,1.9146,1.9152,1.918,1.917,1.9209,1.9194,1.9208,1.9218,1.9219,1.9224,1.9213,1.9234,1.927,1.9275,1.9226,1.9225,1.9225,0,1.8944,1.8985,1.9016,1.9028,1.9058,1.9073,1.9086,1.9108,1.9125,1.9148,1.9158,1.9185,1.9199,1.9219,1.9233,1.9224,1.9271,1.9262,1.9279,1.9278,1.9289,1.9289,1.9329,1.9297,1.9296,1.9296,1.9296,0,1.898,1.9006,1.9025,1.9044,1.9073,1.9086,1.9114,1.9128,1.9147,1.9169,1.9176,1.9196,1.9212,1.9235,1.9246,1.9276,1.9282,1.929,1.9293,1.929,1.9289,1.9301,1.9299,1.9298,1.9297,1.9297,1.9297,0,1.9006,1.902,1.9054,1.9079,1.9086,1.9106,1.9128,1.9147,1.9159,1.9186,1.9194,1.9213,1.924,1.9255,1.9289,1.9296,1.933,1.9331,1.9322,1.9324,1.934,1.9338,1.939,1.9397,1.9359,1.9359,1.9359,0,1.9028,1.9048,1.9075,1.909,1.9103,1.9127,1.9143,1.9155,1.9172,1.9199,1.9214,1.9241,1.9264,1.9306,1.9323,1.9349,1.9352,1.9368,1.9356,1.9352,1.9353,1.9352,1.9354,1.937,1.9371,1.9371,1.9371,0,1.9066,1.9072,1.9094,1.9119,1.9138,1.9158,1.9178,1.919,1.9205,1.9224,1.9251,1.9268,1.9302,1.9329,1.9355,1.9369,1.9373,1.9374,1.938,1.9378,1.9372,1.9376,1.9329,1.9374,1.9373,1.9373,1.9373,1.9373,1.9092,1.911,1.9131,1.9156,1.9172,1.919,1.9209,1.9223,1.9245,1.9273,1.9279,1.9308,1.9329,1.9365,1.938,1.9402,1.94,1.9407,1.9409,1.9411,1.9412,1.9367,1.9407,1.9407,1.9407,1.9407,1.9407,0,1.9131,1.9145,1.9167,1.9194,1.9214,1.9214,1.9236,1.9252,1.9277,1.9296,1.9318,1.9348,1.9374,1.9392,1.9418,1.9433,1.9435,1.9439,1.9439,1.9442,1.9413,1.9406,1.9437,1.9437,1.9437,1.9437,1.9437,1.9437,1.9154,1.9184,1.9192,1.923,1.9243,1.9271,1.9283,1.93,1.9315,1.9349,1.937,1.9381,1.9401,1.9428,1.9451,1.9456,1.9465,1.9469,1.9474,1.9447,1.9444,1.9441,1.9435,1.9471,1.9471,1.9502,1.9502,1.9502]}]]